[[{"header":{"parameterUnit":"m.s-1","parameterCategory":1,"la1":30.2991,"la2":30.254,"lo1":-89.0895,"lo2":-89.0444,"dy":0.0017,"dx":0.0017,"nx":28,"ny":28,"refTime":"2025-11-27T09:00:00:Z","depth":0,"parameterNumber":2,"parameterNumberName":"U-component_of_WINDS"},"data":[0,0,0,0,0,0,0,0,0,0,0,0,0,0,0,0,0,0,0,0,0,0,0,0,0,0,0,0,0,0,0,0,0,0,0,0,0,0,0,0,0,0,0,0,0,0,0,0,0,0,0,0,0,0,0,0,0,0,-6.4924,-6.4924,0,-6.4969,-6.4969,-6.497,-6.4802,-6.4797,-6.4792,-6.4787,-6.4833,-6.4838,-6.4844,0,0,0,0,0,0,0,0,0,0,0,0,0,-6.469,-6.4695,-6.4924,-6.4924,-6.4925,-6.4969,-6.4969,-6.497,-6.4803,-6.4797,-6.4791,-6.4785,-6.4831,-6.4838,-6.4845,0,0,0,0,0,0,0,0,0,0,0,0,0,-6.4769,-6.4697,-6.4924,-6.4847,-6.484,-6.4969,-6.4969,-6.497,-6.4804,-6.4797,-6.4789,-6.4782,-6.4828,-6.4837,-6.4846,-6.505,0,0,-6.4872,-6.4876,0,0,0,0,0,0,0,0,-6.4765,-6.4778,-6.4858,-6.4852,-6.4845,-6.4872,-6.4903,-6.4997,-6.4806,-6.4818,-6.4787,-6.4779,-6.4852,-6.4858,-6.4883,-6.5052,-6.5054,-6.4873,-6.4878,-6.4882,-6.4885,0,0,0,0,0,0,0,-6.476,-6.4775,-6.4941,-6.4859,-6.4852,-6.4809,-6.4812,-6.492,-6.4876,-6.4816,-6.4804,-6.4812,-6.4847,-6.4875,-6.4883,-6.5054,-6.4873,-6.4881,-6.4886,-6.489,-6.5389,-6.5396,0,0,0,0,0,0,-6.4765,-6.4772,-6.494,-6.4943,-6.4786,-6.482,-6.4823,-6.4871,-6.4875,-6.4868,-6.4818,-6.4804,-6.4864,-6.4873,-6.4884,-6.5119,-6.4882,-6.489,-6.4895,-6.5381,-6.539,-6.5399,0,0,0,0,0,0,-6.476,-6.4781,-6.4938,-6.4854,-6.4871,-6.4832,-6.4887,-6.4876,-6.4904,-6.4876,-6.4867,-6.4855,-6.4858,-6.4871,-6.5009,-6.5119,-6.4894,-6.4902,-6.5371,-6.5384,-6.5395,-6.5595,0,0,0,0,0,0,-6.4754,-6.4781,-6.4858,-6.4857,-6.4876,-6.5064,-6.4894,-6.4882,-6.4919,-6.4901,-6.4908,-6.4902,-6.4853,-6.4997,-6.5018,-6.5127,-6.4909,-6.5361,-6.5377,-6.5391,-6.5578,-6.5612,-6.5641,0,0,0,0,0,-6.4746,-6.4914,-6.4863,-6.4885,-6.4972,-6.5071,-6.5081,-6.5022,-6.4929,-6.5006,-6.4988,-6.4902,-6.5104,-6.5012,-6.5034,-6.5148,-6.5354,-6.5372,-6.539,-6.5564,-6.5605,-6.564,0,0,0,0,0,0,-6.4929,-6.4912,-6.4856,-6.5028,-6.5052,-6.5042,-6.5137,-6.5068,-6.5119,-6.5099,-6.5023,-6.5026,-6.5176,-6.5176,-6.5074,-6.5343,-6.5213,-6.5236,-6.5337,-6.5377,-6.5408,-6.5403,-6.4916,0,0,0,0,0,-6.4989,-6.5071,-6.5052,-6.5205,-6.522,-6.5177,-6.5218,-6.517,-6.5191,-6.5201,-6.5193,-6.5217,-6.5284,-6.5331,-6.5393,-6.5578,-6.5575,-6.5667,-6.5699,-6.5725,-6.5745,-6.5839,-6.5878,-6.5458,-6.5458,-6.5458,0,0,-6.5114,-6.5115,-6.5171,-6.5241,-6.5254,-6.5339,-6.5187,-6.5284,-6.5345,-6.5215,-6.5343,-6.5339,-6.536,-6.5522,-6.5592,-6.5526,-6.5861,-6.5748,-6.5769,-6.5774,-6.5861,-6.5901,-6.5937,-6.547,-6.5468,-6.5466,0,0,-6.5384,-6.5395,-6.5522,-6.5538,-6.5559,-6.553,-6.5561,-6.5562,-6.5553,-6.5681,-6.5584,-6.5656,-6.5777,-6.5795,-6.582,-6.6097,-6.6018,-6.6119,-6.6282,-6.6375,-6.6408,-6.6437,-6.6532,-6.6567,-6.614,-6.614,-6.6141,0,-6.5536,-6.5661,-6.5596,-6.5699,-6.5731,-6.5618,-6.5744,-6.5763,-6.5804,-6.5829,-6.5754,-6.5901,-6.5908,-6.607,-6.6137,-6.6163,-6.6194,-6.6116,-6.6409,-6.6437,-6.6463,-6.6553,-6.6589,-6.6152,-6.6151,-6.615,-6.6148,0,-6.5845,-6.5933,-6.6033,-6.6074,-6.6118,-6.6233,-6.6184,-6.6237,-6.6185,-6.6163,-6.6293,-6.6298,-6.6357,-6.6392,-6.6344,-6.6548,-6.6505,-6.6422,-6.6288,-6.6516,-6.6599,-6.6633,-6.6169,-6.6165,-6.6161,-6.6158,0,0,-6.6229,-6.6233,-6.627,-6.6286,-6.6302,-6.6367,-6.6477,-6.6534,-6.6579,-6.6612,-6.6699,-6.6803,-6.6725,-6.6754,-6.6706,-6.6789,-6.7003,-6.6694,-6.6693,-6.6748,-6.7223,-6.7283,-6.7324,-6.6952,-6.6959,-6.6964,-6.722,0,-6.6491,-6.6676,-6.662,-6.6806,-6.6885,-6.6779,-6.6873,-6.6892,-6.6875,-6.6938,-6.6918,-6.6992,-6.6886,-6.6902,-6.6979,-6.696,-6.7096,-6.6942,-6.703,-6.7034,-6.7023,-6.7367,-6.7431,-6.7672,-6.7252,-6.7258,-6.7261,0,-6.682,-6.6864,-6.7059,-6.7058,-6.7089,-6.7175,-6.7221,-6.7285,-6.7303,-6.7285,-6.7317,-6.7252,-6.7357,-6.7227,-6.7368,-6.7264,-6.7298,-6.7294,-6.7302,-6.7304,-6.7158,-6.7375,-6.7748,-6.7783,-6.7313,-6.7308,-6.7305,0,-6.7075,-6.7184,-6.7313,-6.7331,-6.7335,-6.7397,-6.7402,-6.7413,-6.7451,-6.7492,-6.7515,-6.757,-6.7598,-6.7641,-6.7591,-6.7502,-6.774,-6.7606,-6.7725,-6.7726,-6.7776,-6.7773,-6.8155,-6.7806,-6.7805,-6.7804,-6.7804,0,-6.7371,-6.7493,-6.7427,-6.7506,-6.7638,-6.7574,-6.7706,-6.7699,-6.771,-6.7785,-6.7698,-6.7769,-6.7702,-6.7767,-6.773,-6.7851,-6.7866,-6.7852,-6.784,-6.7857,-6.7858,-6.7875,-6.7855,-6.7814,-6.7812,-6.781,-6.7808,0,-6.7677,-6.7638,-6.7771,-6.7764,-6.7765,-6.7863,-6.7856,-6.7928,-6.7905,-6.8,-6.8019,-6.7982,-6.8054,-6.801,-6.8084,-6.8059,-6.8215,-6.8183,-6.8209,-6.8198,-6.8318,-6.8305,-6.8721,-6.877,-6.8393,-6.8397,-6.84,0,-6.7866,-6.7956,-6.7959,-6.8002,-6.8013,-6.8085,-6.8122,-6.8062,-6.8104,-6.8132,-6.82,-6.8265,-6.8313,-6.8433,-6.8412,-6.8468,-6.8433,-6.8575,-6.844,-6.8454,-6.8429,-6.8423,-6.843,-6.86,-6.8605,-6.8608,-6.8611,0,-6.8203,-6.8179,-6.8237,-6.8288,-6.8335,-6.8373,-6.8402,-6.8443,-6.8383,-6.8435,-6.8507,-6.8545,-6.862,-6.8684,-6.8731,-6.8734,-6.8662,-6.8655,-6.8684,-6.87,-6.871,-6.8702,-6.8278,-6.8644,-6.8641,-6.8638,-6.8637,-6.8635,-6.8453,-6.8527,-6.854,-6.8606,-6.8623,-6.8653,-6.8719,-6.8704,-6.8763,-6.8819,-6.878,-6.8865,-6.888,-6.8935,-6.8948,-6.9013,-6.8955,-6.8999,-6.9009,-6.902,-6.9034,-6.8704,-6.9022,-6.9021,-6.902,-6.9019,-6.9018,0,-6.8782,-6.8785,-6.8847,-6.8891,-6.8943,-6.8873,-6.8902,-6.8949,-6.9025,-6.9046,-6.9095,-6.9177,-6.9239,-6.9223,-6.9278,-6.9333,-6.9301,-6.9349,-6.9342,-6.9343,-6.9085,-6.9052,-6.9374,-6.9374,-6.9373,-6.9373,-6.9373,-6.9373,-6.8959,-6.908,-6.9058,-6.9185,-6.9187,-6.9269,-6.9292,-6.9318,-6.9333,-6.9429,-6.948,-6.9469,-6.9475,-6.9529,-6.9582,-6.9576,-6.9598,-6.9658,-6.9639,-6.9397,-6.9362,-6.9328,-6.9296,-6.9664,-6.9665,-6.9891,-6.9893,-6.9895]},{"header":{"parameterUnit":"m.s-1","parameterCategory":1,"la1":30.2991,"la2":30.254,"lo1":-89.0895,"lo2":-89.0444,"dy":0.0017,"dx":0.0017,"nx":28,"ny":28,"refTime":"2025-11-27T09:00:00:Z","depth":0,"parameterNumber":3,"parameterNumberName":"V-component_of_WINDS"},"data":[0,0,0,0,0,0,0,0,0,0,0,0,0,0,0,0,0,0,0,0,0,0,0,0,0,0,0,0,0,0,0,0,0,0,0,0,0,0,0,0,0,0,0,0,0,0,0,0,0,0,0,0,0,0,0,0,0,0,-0.366,-0.366,0,-0.3714,-0.3714,-0.3715,-0.3809,-0.3811,-0.3813,-0.3815,-0.3867,-0.3867,-0.3867,0,0,0,0,0,0,0,0,0,0,0,0,0,-0.3635,-0.3635,-0.366,-0.366,-0.3661,-0.3713,-0.3714,-0.3715,-0.3809,-0.3811,-0.3814,-0.3816,-0.3867,-0.3867,-0.3867,0,0,0,0,0,0,0,0,0,0,0,0,0,-0.3663,-0.3635,-0.3659,-0.3714,-0.372,-0.3713,-0.3714,-0.3715,-0.3809,-0.3811,-0.3814,-0.3817,-0.3868,-0.3867,-0.3867,-0.381,0,0,-0.3865,-0.3865,0,0,0,0,0,0,0,0,-0.3661,-0.3664,-0.3706,-0.3711,-0.3717,-0.3758,-0.3725,-0.3747,-0.3808,-0.3775,-0.3815,-0.3818,-0.3828,-0.3831,-0.3836,-0.3813,-0.3815,-0.3865,-0.3865,-0.3865,-0.3865,0,0,0,0,0,0,0,-0.3659,-0.3662,-0.3681,-0.3706,-0.3713,-0.3735,-0.3742,-0.373,-0.3786,-0.3778,-0.3785,-0.379,-0.3832,-0.3836,-0.3837,-0.3816,-0.3865,-0.3865,-0.3865,-0.3865,-0.3747,-0.3744,0,0,0,0,0,0,-0.365,-0.366,-0.3679,-0.3683,-0.3695,-0.3734,-0.3741,-0.3742,-0.3786,-0.3796,-0.3788,-0.3794,-0.3835,-0.3838,-0.384,-0.3775,-0.3865,-0.3865,-0.3864,-0.375,-0.3746,-0.3743,0,0,0,0,0,0,-0.3649,-0.3651,-0.3677,-0.3673,-0.3678,-0.3731,-0.3731,-0.3741,-0.3745,-0.3794,-0.3804,-0.3781,-0.3837,-0.384,-0.3816,-0.3778,-0.3864,-0.3864,-0.3753,-0.3749,-0.3745,-0.3645,0,0,0,0,0,0,-0.3648,-0.365,-0.3629,-0.3672,-0.3678,-0.3653,-0.3729,-0.374,-0.3745,-0.3754,-0.379,-0.3799,-0.384,-0.3817,-0.3816,-0.3779,-0.3864,-0.3757,-0.3751,-0.3746,-0.3652,-0.3637,-0.3625,0,0,0,0,0,-0.3647,-0.3599,-0.3628,-0.363,-0.3654,-0.3651,-0.3654,-0.3703,-0.3741,-0.372,-0.3751,-0.3798,-0.3783,-0.3813,-0.3814,-0.3775,-0.3759,-0.3753,-0.3746,-0.3657,-0.364,-0.3626,0,0,0,0,0,0,-0.355,-0.3606,-0.3638,-0.3603,-0.3622,-0.3667,-0.3643,-0.3683,-0.3691,-0.3699,-0.3758,-0.3765,-0.3733,-0.3753,-0.3786,-0.3722,-0.3778,-0.3771,-0.371,-0.3694,-0.3681,-0.3676,-0.3863,0,0,0,0,0,-0.3524,-0.3518,-0.3567,-0.3532,-0.3539,-0.3589,-0.359,-0.3625,-0.3647,-0.3655,-0.3684,-0.3702,-0.3701,-0.3699,-0.3701,-0.3656,-0.3664,-0.3629,-0.3616,-0.3605,-0.3598,-0.3573,-0.3558,-0.3722,-0.3722,-0.3722,0,0,-0.3472,-0.3502,-0.3494,-0.3513,-0.3531,-0.3522,-0.3595,-0.3583,-0.3576,-0.3653,-0.3631,-0.3654,-0.3678,-0.3642,-0.3628,-0.3657,-0.3555,-0.3597,-0.3588,-0.3587,-0.3565,-0.3549,-0.3535,-0.3717,-0.3718,-0.3719,0,0,-0.3371,-0.3394,-0.3365,-0.3382,-0.341,-0.3443,-0.3436,-0.3476,-0.3493,-0.3473,-0.353,-0.3523,-0.3521,-0.3535,-0.3542,-0.3445,-0.3487,-0.3444,-0.3375,-0.335,-0.3337,-0.3325,-0.3289,-0.3275,-0.3437,-0.3437,-0.3437,0,-0.3301,-0.3291,-0.3345,-0.3329,-0.3335,-0.3405,-0.3376,-0.3389,-0.3415,-0.3417,-0.345,-0.3448,-0.3469,-0.3437,-0.3413,-0.3417,-0.3409,-0.3439,-0.3334,-0.3324,-0.3314,-0.3279,-0.3266,-0.3432,-0.3432,-0.3433,-0.3433,0,-0.3203,-0.3195,-0.3169,-0.3192,-0.3196,-0.3173,-0.3223,-0.3219,-0.3255,-0.3284,-0.3262,-0.329,-0.3298,-0.3294,-0.3328,-0.3265,-0.3282,-0.3324,-0.3381,-0.3292,-0.326,-0.3248,-0.3423,-0.3425,-0.3427,-0.3429,0,0,-0.3041,-0.3096,-0.3085,-0.3096,-0.3131,-0.3125,-0.3105,-0.3114,-0.3108,-0.3124,-0.3107,-0.3104,-0.3142,-0.315,-0.3187,-0.3165,-0.3084,-0.3209,-0.3211,-0.3183,-0.3014,-0.298,-0.2964,-0.3113,-0.3111,-0.3109,-0.3011,0,-0.2946,-0.2915,-0.2963,-0.2921,-0.2913,-0.2979,-0.2961,-0.298,-0.3007,-0.3003,-0.3034,-0.3029,-0.3081,-0.3086,-0.3068,-0.3097,-0.305,-0.3106,-0.3096,-0.3095,-0.3085,-0.2949,-0.2914,-0.282,-0.2999,-0.2997,-0.2996,0,-0.283,-0.284,-0.2797,-0.2833,-0.2832,-0.2815,-0.2826,-0.2823,-0.2845,-0.2866,-0.2874,-0.2918,-0.2899,-0.2956,-0.293,-0.2967,-0.2966,-0.298,-0.2977,-0.2976,-0.3038,-0.2941,-0.2791,-0.2776,-0.2978,-0.2979,-0.298,0,-0.2713,-0.2716,-0.269,-0.2698,-0.2741,-0.2727,-0.2744,-0.2769,-0.2771,-0.278,-0.2782,-0.2789,-0.2792,-0.2795,-0.2839,-0.2877,-0.2807,-0.2868,-0.2822,-0.2821,-0.2803,-0.2803,-0.2648,-0.2806,-0.2806,-0.2806,-0.2807,0,-0.26,-0.257,-0.2638,-0.2622,-0.259,-0.2646,-0.2612,-0.2636,-0.2658,-0.2646,-0.2704,-0.2692,-0.2752,-0.2746,-0.278,-0.2752,-0.2754,-0.2769,-0.2778,-0.2762,-0.276,-0.2761,-0.2767,-0.2803,-0.2804,-0.2804,-0.2805,0,-0.2463,-0.2507,-0.2483,-0.2526,-0.2536,-0.251,-0.2546,-0.2532,-0.2563,-0.2548,-0.2547,-0.2595,-0.2591,-0.2636,-0.264,-0.2663,-0.2618,-0.264,-0.2611,-0.2616,-0.2567,-0.257,-0.2405,-0.2385,-0.2558,-0.2556,-0.2555,0,-0.2386,-0.2365,-0.2405,-0.2402,-0.2416,-0.2411,-0.2413,-0.2466,-0.2466,-0.2489,-0.2472,-0.2472,-0.2475,-0.2465,-0.25,-0.2503,-0.2523,-0.2465,-0.2524,-0.2508,-0.252,-0.2519,-0.2516,-0.2452,-0.245,-0.2448,-0.2447,0,-0.2245,-0.2268,-0.2269,-0.2277,-0.2278,-0.2287,-0.23,-0.2294,-0.2352,-0.2348,-0.2345,-0.2347,-0.2351,-0.235,-0.236,-0.2377,-0.242,-0.2428,-0.2418,-0.24,-0.2383,-0.2389,-0.2574,-0.2431,-0.2433,-0.2434,-0.2435,-0.2436,-0.2135,-0.2118,-0.2143,-0.2142,-0.2158,-0.2168,-0.2156,-0.2186,-0.2184,-0.2192,-0.2224,-0.2214,-0.2236,-0.2254,-0.2267,-0.2259,-0.2287,-0.2272,-0.2267,-0.2262,-0.2252,-0.2386,-0.2261,-0.2262,-0.2262,-0.2263,-0.2263,0,-0.1994,-0.2014,-0.2012,-0.2028,-0.2027,-0.207,-0.2086,-0.2081,-0.2072,-0.209,-0.2092,-0.2086,-0.2086,-0.212,-0.2124,-0.2111,-0.213,-0.2109,-0.211,-0.2112,-0.2228,-0.2236,-0.2093,-0.2093,-0.2093,-0.2093,-0.2093,-0.2093,-0.1921,-0.1894,-0.192,-0.1902,-0.1922,-0.1913,-0.1918,-0.1927,-0.1941,-0.1933,-0.1933,-0.1956,-0.198,-0.1985,-0.1986,-0.1996,-0.1993,-0.1965,-0.1981,-0.2088,-0.2104,-0.212,-0.2128,-0.1964,-0.1964,-0.1866,-0.1865,-0.1864]}]]